Location: Mauna Kea VIS
(19.7591°N, 155.4561°W)
Time: 13:47:11
(UTC-10:00)

Daily predictions for brighter satellites

Satellite Brightness Start Highest point End
(mag) Time Altitude Azimuth Time Altitude Azimuth Time Altitude Azimuth
IUS-1 SRM-2 4.3 17:22:08 10° WSW 17:26:25 87° SSE 17:51:27 10° ENE
AQUARIUS 4.1 18:02:59 10° SSE 18:07:28 82° ENE 18:11:57 10° N
Cosmos 1536 Rocket 3.5 18:03:46 10° S 18:08:09 72° E 18:12:35 10° N
Cosmos 158 Rocket 4.0 18:03:31 10° N 18:08:45 61° ENE 18:13:50 10° SSE
Cosmos 1975 4.1 18:06:59 10° NNE 18:09:58 20° E 18:12:57 10° SE
Cosmos 1048 Rocket 4.4 18:08:14 10° NNW 18:13:33 73° WSW 18:18:53 10° S
YAOGAN 1 2.6 18:11:06 10° S 18:15:25 86° WSW 18:19:45 10° NNW
Cosmos 2297 4.0 18:10:48 10° S 18:16:13 49° ESE 18:21:38 10° NNE
SMAP 3.3 18:13:05 10° S 18:17:42 75° WSW 18:22:20 10° NNW
CORIOLIS 4.2 18:15:52 10° SSE 18:21:17 87° WSW 18:26:43 10° NNW
SPOT 3 Rocket 4.0 18:17:02 10° S 18:22:12 69° WSW 18:27:22 10° NNW
GPS 2-17 Rocket1 3.6 18:19:00 10° WSW 18:23:33 50° SSE 18:27:32 12° E
Meteor 1-12 Rocket 4.5 18:21:11 10° N 18:26:52 52° E 18:32:36 10° SSE
Cosmos 1025 Rocket 4.4 18:24:05 10° SE 18:27:13 20° E 18:29:18 14° NE
Cosmos 1484 Rocket 2.9 18:23:42 10° SSE 18:27:22 47° ENE 18:30:59 10° N
SL-24 DEB 4.3 18:24:07 10° N 18:28:50 83° W 18:33:29 10° S
NOSS 2-1 (D) 3.2 18:28:21 10° SSW 18:32:19 68° ESE 18:35:36 13° NNE
Cosmos 2278 Rocket 3.4 18:27:16 10° SW 18:32:36 43° WNW 18:37:56 10° N
NOSS 2-1 (C) 3.2 18:29:03 10° SSW 18:33:00 66° ESE 18:36:15 14° NNE
Okean 1-7 Rocket 3.9 18:29:38 10° SSE 18:33:57 44° E 18:38:14 10° NNE
Cosmos 921 Rocket 3.1 18:31:10 10° S 18:35:11 49° E 18:39:07 11° NNE
IDEFIX/ARIANE 42P 3.8 18:34:01 10° S 18:38:59 45° W 18:43:57 10° NNW
Meteor 1-13 Rocket 4.1 18:38:43 10° S 18:44:16 77° E 18:49:56 10° N
Intercosmos 25 4.3 18:44:54 22° ESE 18:44:54 22° ESE 18:47:25 10° SE
Cosmos 1371 Rocket 4.4 18:40:36 10° S 18:45:35 43° E 18:49:10 18° NE
COSMOS 2406 4.0 18:41:06 10° NNW 18:46:41 57° WSW 18:52:17 10° S
FALCON 9 R/B 4.3 18:22:05 10° W 18:49:34 45° NNW 18:55:42 17° NE
Timation 1 Rocket 4.3 18:43:41 10° SSW 18:49:38 88° ESE 18:55:36 10° NNE
Cosmos 1455 Rocket 3.6 18:45:32 10° NNW 18:49:52 60° W 18:54:13 10° S
NOSS 2-1 (E) 3.3 18:47:35 10° SSW 18:51:33 75° WNW 18:54:09 20° NNE
Orbus 7S? 3.7 18:48:35 10° SSW 18:52:17 32° SE 18:52:37 31° ESE
Meteor 1-23 Rocket 4.4 18:55:26 10° SSE 19:00:58 49° E 19:04:27 22° NNE
Cosmos 1500 3.1 18:58:46 10° N 19:02:35 88° W 19:06:26 10° S
Hubble Space Telescope 0.6 18:59:01 10° WNW 19:03:10 87° NNE 19:04:29 42° ESE
NOAA 12 3.9 19:07:41 10° SSE 19:12:57 73° ENE 19:18:12 10° N
Cosmos 494 Rocket 4.2 19:08:17 10° NNW 19:13:30 74° WSW 19:18:44 10° S
METEOR-M 4.0 19:09:17 10° SSE 19:14:31 61° ENE 19:19:45 10° N
Helios 1B rocket 2.6 19:16:05 52° SE 19:16:05 52° SE 19:19:39 10° S
GPS 2-15 Rocket1 3.0 19:11:51 10° W 19:16:35 86° S 19:17:25 60° ESE
GPS 2-18 Rocket1 3.1 19:13:30 10° W 19:17:30 75° S 19:17:48 71° SSE
Cosmos 1934 Rocket 4.3 19:19:28 41° E 19:19:28 41° E 19:24:57 10° SSE
Meteor 2-4 Rocket 3.6 19:15:12 10° S 19:20:42 85° W 19:24:28 20° N
BREEZE-M DEB (TANK) 3.0 19:17:07 10° NW 19:20:47 84° SW 19:22:52 29° SE
GPS 2-14 Rocket1 2.7 19:16:54 10° W 19:20:54 76° NNW 19:20:54 76° NNW
SJ-6B 3.0 19:22:23 10° S 19:25:38 61° SSW 19:25:38 61° SSW
Palapa 6 Rocket 3.4 19:21:50 10° W 19:27:37 62° N 19:27:53 61° NNE
Cosmos 2239 Rocket 4.3 19:26:13 10° N 19:32:24 79° E 19:38:32 10° S
Cosmos 1821 Rocket 3.8 19:34:47 10° N 19:40:52 89° E 19:46:58 10° S
Cosmos 2369 Rocket 3.9 19:36:21 10° SSE 19:37:59 18° SSE 19:37:59 18° SSE
GEOS 3 Rocket 3.5 19:42:57 84° SSW 19:43:04 85° WSW 19:48:12 10° NNW
ATLAS 2AS CENTAUR R/B 3.1 19:37:15 10° NNW 19:44:57 70° WSW 19:51:56 10° SSE
Centaur D-1AR AC-41 4.0 19:20:28 10° W 19:49:53 80° N 19:51:06 64° ENE
Cosmos 1727 Rocket 4.3 20:04:19 10° SSW 20:09:56 62° WSW 20:09:56 62° WSW
ATLAS 3B CENTAUR R/B 3.6 20:04:48 10° WNW 20:15:17 41° NNW 20:15:17 41° NNW
